{"data":{"norad_id":53545,"intl_designator":"2022-101U","name":"STARLINK-4475","alt_names":[],"object_type":"PAYLOAD","status":"ACTIVE","operator":null,"country":"US","launch_date":"2022-08-19","launch_site_code":"AFETR","launch_vehicle":null,"mission":null,"orbit_class":"UNKNOWN","rcs_meters":null,"size_class":null,"mass_kg":null,"dimensions":null,"purposes":["comms"],"wikipedia_slug":null,"has_3d_model":false,"image_url":null,"decayed_at":null,"tle_current":{"epoch":"2026-09-20T12:41:01.885920Z","epoch_age_seconds":76312,"freshness":"FRESH","line1":"1 53545U 22101U   26263.52849405 -.00001099  00000+0 -21413-4 0  9999","line2":"2 53545  53.1601 253.5377 0001213  85.2355 274.8786 15.34384882226623","mean_motion":15.34384882,"eccentricity":0.0001213,"inclination_deg":53.1601,"raan_deg":253.5377,"arg_perigee_deg":85.2355,"mean_anomaly_deg":274.8786,"bstar":-2.1413e-5,"rev_number":22662,"period_min":93.848682745298,"perigee_km":461.91837508635,"apogee_km":463.57797382968,"semimajor_km":6840.885174458,"source":"CELESTRAK","updated_at":"2026-09-21T09:00:32.922944Z"}}}